Location: Unspecified
(0.0000°N, 0.0000°E)
Time: 16:18:37
(UTC+00:00)

Explorer 11/Cluster Stage 4 - Pass Details

Date: 26 November 2019
Orbit: 467 x 1259 km, 28.8° (Epoch: 12 December)

Event Time Altitude Azimuth Distance (km) Brightness Sun altitude
Rises 13:06:36 0° 251° (WSW) 2,812 9.8 61.5°
Reaches altitude 10° 13:09:10 10° 259° (W) 1,808 9.0 61.0°
Maximum altitude 13:12:58 38° 328° (NNW) 766 7.0 60.4°
Drops below altitude 10° 13:16:23 10° 38° (NE) 1,620 8.0 59.8°
Sets 13:18:34 0° 47° (NE) 2,476 8.9 59.4°
